Regional Weather Roundup
Issued by NWS

Home | Current Version | Previous Version | Graphics & Text | Print | Product List | Glossary On
Versions: 1 2 3 4 5 6 7 8 9 10 11 12 13 14 15 16 17 18 19 20 21 22 23 24 25 26 27 28 29 30 31 32 33 34 35 36 37 38 39 40 41 42 43 44 45 46 47 48 49 50
000
ASUS43 KLMK 191902
RWRKY
KENTUCKY REGIONAL WEATHER ROUNDUP
NATIONAL WEATHER SERVICE LOUISVILLE KY
300 PM EDT TUE AUG 19 2014

NOTE "FAIR" INDICATES FEW OR NO CLOUDS BELOW 12,000 FEET
WITH NO SIGNIFICANT WEATHER AND/OR OBSTRUCTIONS TO VISIBILITY.

KYZ001>023-026-027-061>063-070>075-192000-
WESTERN AND SOUTH CENTRAL KENTUCKY

CITY           SKY/WX    TMP DP  RH WIND       PRES   REMARKS
PADUCAH        MOSUNNY   91  75  59 S7        29.84F HX 101
HENDERSON      MOSUNNY   90  73  58 SW7       29.85S HX  98
OWENSBORO      PTSUNNY   88  74  63 SW8       29.87S HX  96
HOPKINSVILLE   PTSUNNY   88  72  58 SW15G21   29.88F HX  94
BOWLING GREEN  MOSUNNY   87  68  52 CALM      29.88F HX  90
GLASGOW        SUNNY     85  69  59 W9        29.90F
$$

KYZ024-025-028>034-038-045-046-053-192000-
NORTH CENTRAL KENTUCKY

CITY           SKY/WX    TMP DP  RH WIND       PRES   REMARKS
LOUISVILLE/SDF MOSUNNY   88  70  55 VRB7      29.86F HX  93
LOUISVILLE/LOU MOSUNNY   85  68  56 S5        29.87S
FORT KNOX      MOSUNNY   86  70  58 S6        29.86F HX  90
$$

KYZ035>037-039>044-047>052-055>060-089>105-192000-
NORTHEAST KENTUCKY

CITY           SKY/WX    TMP DP  RH WIND       PRES   REMARKS
LEXINGTON      MOSUNNY   85  70  60 W7        29.89F
COVINGTON      MOSUNNY   86  67  52 SW9       29.86F
FRANKFORT      MOSUNNY   84  69  60 SW6       29.87F
$$

KYZ054-064>069-076>088-106>120-192000-
SOUTHEAST KENTUCKY

CITY           SKY/WX    TMP DP  RH WIND       PRES   REMARKS
JACKSON        PTSUNNY   82  68  62 W6        29.91F
LONDON         SUNNY     84  68  58 W7        29.92F
SOMERSET       MOSUNNY   82  68  61 W8        29.92S
MIDDLESBORO    PTSUNNY   84  69  61 NE5       29.92S
MONTICELLO     PTCLDY    86  72  62 VRB6      29.93S HX  92
$$




USA.gov is the U.S. government's official web portal to all federal, state and local government web resources and services.